Location: La Fredeussais
(48.1780°N, 1.3980°W)
Time: 16:39:38
(UTC+00:00)

Resurs 1-3 - Pass Details

Date: 09 May 2021
Orbit: 630 x 631 km, 97.9° (Epoch: 23 June)

Event Time Altitude Azimuth Distance (km) Brightness Sun altitude
Exits shadow 20:11:37 - 165° (SSE) 2,810 6.5 -6.6°
Reaches altitude 10° 20:13:33 10° 166° (SSE) 2,009 5.7 -6.9°
Maximum altitude 20:17:56 88° 258° (WSW) 640 3.7 -7.5°
Drops below altitude 10° 20:22:22 10° 346° (NNW) 2,025 7.1 -8.1°
Sets 20:24:34 0° 347° (NNW) 2,938 7.9 -8.3°
